Regional Weather Roundup
Issued by NWS

Home | Current Version | Previous Version | Graphics & Text | Print | Product List | Glossary On
Versions: 1 2 3 4 5 6 7 8 9 10 11 12 13 14 15 16 17 18 19 20 21 22 23 24 25 26 27 28 29 30 31 32 33 34 35 36 37 38 39 40 41 42 43 44 45 46 47 48 49 50
635
ASUS44 KJAN 191510
RWRMS

MISSISSIPPI HOURLY WEATHER ROUNDUP
NATIONAL WEATHER SERVICE JACKSON MS
1000 AM CDT SUN APR 19 2015

NOTE: "FAIR: INDICATES FEW OR NO CLOUDS BELOW 12,000 FEET WITH NO
SIGNIFICANT WEATHER AND/OR OBSTRUCTIONS TO VISIBILITY.

MSZ001>002-007>008-010>013-018>021-025>028-034>036-191600-
NORTHWEST MISSISSIPPI

CITY           SKY/WX    TMP DP  RH WIND       PRES   REMARKS
CLARKSDALE     PTSUNNY   68  68 100 W15       29.68R
CLEVELAND      LGT RAIN  66  66 100 W8        29.70R
GREENWOOD      MOSUNNY   69  61  75 SW12      29.72R
GREENVILLE     LGT RAIN  65  63  93 W12       29.72R FOG
OLIVE BRANCH   CLOUDY    64  63  94 W6        29.62F
OXFORD         PTSUNNY   66  63  88 SW10      29.69R
TUNICA         CLOUDY    68  63  83 W12       29.66R
$$

MSZ003>006-009-014>017-022>024-029>033-037>039-191600-
NORTHEAST MISSISSIPPI

CITY           SKY/WX    TMP DP  RH WIND       PRES   REMARKS
COLUMBUS AFB   PTSUNNY   71  66  84 S9        29.69F
CORINTH        CLOUDY    68  64  88 S6        29.64F
GOLDN TRIANGLE PTSUNNY   70  64  83 SW7       29.70S
STARKVILLE     FAIR      72  64  78 S7        29.71R
TUPELO         PTSUNNY   69  63  81 SW12      29.67S
$$

MSZ040-058-191600-
CENTRAL MISSISSIPPI

CITY           SKY/WX    TMP DP  RH WIND       PRES   REMARKS
JACKSON INTL   PTSUNNY   71  65  81 W12G23    29.75R
JACKSON HAWKNS PTSUNNY   70  64  81 W15       29.76R
MERIDIAN KEY   CLOUDY    73  66  78 SW10      29.74S
MERIDIAN NAS   PTSUNNY   73  66  78 S9        29.73F
RAYMOND        PTSUNNY   70  64  83 W14G20    29.76R
VICKSBURG      CLOUDY    69  62  78 W6        29.78R
$$

MSZ059>079-191600-
SOUTH MISSISSIPPI

CITY           SKY/WX    TMP DP  RH WIND       PRES   REMARKS
BROOKHAVEN       N/A    N/A N/A N/A SW8       29.81R
HATTIESBURG    CLOUDY    74  66  76 SW6       29.78R HAZE
MCCOMB         MOSUNNY   74  64  71 W8        29.79R
NATCHEZ        PTSUNNY   68  61  77 W5        29.81R
PINE BELT      CLOUDY    72  64  78 SW7       29.78R
$$

MSZ080>082-191600-
COASTAL MISSISSIPPI

CITY           SKY/WX    TMP DP  RH WIND       PRES   REMARKS
BAY ST LOUIS   MOSUNNY   72  66  83 MISG      29.78S
BILOXI         CLOUDY    72  71  97 SW3       29.78S
PASCAGOULA     CLOUDY    73  70  90 CALM      29.80R
GULFPORT       CLOUDY    73  69  87 SW3       29.78S
$$



USA.gov is the U.S. government's official web portal to all federal, state and local government web resources and services.